This demonstration page uses our WeatherBlox Daily Observations layout. Learn more.

Hourly Observations for May 12, 2018

Temp ( °F °C ) Dew Point ( °F °C ) Humidity (%) Winds ( mph kmh ) Pressure ( in mb ) Visibility ( mi km ) Precip ( " mm )
12:54 am 00:54 Cloudy 59 15 54 12.2 83 83 ENE 13 20 29.86 1011 7 11.26538 0 0
1:54 am 01:54 Cloudy 58 14.4 53 11.7 84 84 NE 12 19 29.86 1011 8 12.87472 0 0
3:29 am 03:29 Cloudy with Nearby Thunderstorms 54 12.2 49 9.4 83 83 NNE 14 22 29.91 1013 8 12.87472 0 0
3:37 am 03:37 Cloudy with Thunderstorms 54 12.2 49 9.4 83 83 NNE 20 31 29.88 1012 8 12.87472 0 0
3:54 am 03:54 Cloudy with Nearby Thunderstorms 53 11.7 50 10 89 89 NE 13 20 29.88 1012 8 12.87472 0 0.0254
4:10 am 04:10 Cloudy with Light Thunderstorms 53 11.7 50 10 89 89 NNE 15 24 29.88 1012 7 11.26538 0 0.0254
4:25 am 04:25 Cloudy with Thunderstorms 52 11.1 49 9.4 89 89 E 15 24 29.85 1011 5 8.0467 0.01 0.254
4:43 am 04:43 Cloudy with Thunderstorms 52 11.1 50 10 93 93 ENE 20 31 29.8 1009 5 8.0467 0.02 0.508
4:50 am 04:50 Cloudy with Light Thunderstorms 52 11 50 10 94 94 E 10 17 29.83 1010 6 9.65604 0.03 0.762
4:54 am 04:54 Cloudy with Light Thunderstorms 52 11.1 50 10 93 93 ENE 9 15 29.83 1010 6 9.65604 0.03 0.762
4:58 am 04:58 Cloudy with Mist and Fog 52 11.1 50 10 93 93 NE 10 17 29.83 1010 6 9.65604 0 0.0254
5:54 am 05:54 Cloudy with Mist and Fog 52 11.1 49 9.4 89 89 NE 14 22 29.87 1011 5 8.0467 0 0.0254
6:54 am 06:54 Cloudy with Mist and Fog 51 10.6 49 9.4 92 92 NNE 13 20 29.92 1013 4 6.43736 0 0
7:54 am 07:54 Cloudy with Mist and Fog 51 10.6 49 9.4 92 92 NE 15 24 29.93 1014 4 6.43736 0 0
8:54 am 08:54 Cloudy with Mist and Fog 52 11.1 49 9.4 89 89 ENE 13 20 29.94 1014 4 6.43736 0 0
9:54 am 09:54 Cloudy with Mist and Fog 54 12.2 50 10 87 87 NE 14 22 29.94 1014 4 6.43736 0 0
10:54 am 10:54 Cloudy with Mist and Fog 55 12.8 51 10.6 87 87 ENE 14 22 29.93 1013 5 8.0467 0 0
11:54 am 11:54 Cloudy with Haze 58 14.4 53 11.7 84 84 ENE 12 19 29.93 1013 6 9.65604 0 0
12:04 pm 12:04 Cloudy with Haze 58 14.4 53 11.7 84 84 ENE 10 17 29.94 1014 5 8.0467 0 0
12:35 pm 12:35 Cloudy with Haze 58 14.4 53 11.7 84 84 ENE 13 20 29.94 1014 5 8.0467 0 0
12:54 pm 12:54 Cloudy with Haze 58 14.4 53 11.7 84 84 NE 13 20 29.92 1013 5 8.0467 0 0
1:54 pm 13:54 Cloudy with Haze 59 15 54 12.2 83 83 NE 10 17 29.92 1013 4 6.43736 0 0
2:35 pm 14:35 Cloudy with Haze 61 16.1 54 12.2 78 78 NNE 12 19 29.91 1013 4 6.43736 0 0
2:54 pm 14:54 Cloudy with Haze 61 16.1 55 12.8 81 81 NE 12 19 29.92 1013 5 8.0467 0 0
3:54 pm 15:54 Cloudy with Haze 61 16.1 55 12.8 81 81 N 13 20 29.92 1013 4 6.43736 0 0
4:54 pm 16:54 Cloudy with Haze 58 14.4 52 11.1 81 81 N 18 30 29.93 1014 4 6.43736 0 0
5:54 pm 17:54 Cloudy with Haze 56 13.3 51 10.6 84 84 N 17 28 29.95 1014 4 6.43736 0 0
6:44 pm 18:44 Cloudy with Haze 56 13.3 51 10.6 84 84 NNE 15 24 29.94 1014 5 8.0467 0 0
6:54 pm 18:54 Cloudy with Haze 56 13.3 51 10.6 84 84 NNE 14 22 29.93 1014 5 8.0467 0 0
7:18 pm 19:18 Cloudy with Haze 56 13.3 51 10.6 84 84 NNE 10 17 29.94 1014 5 8.0467 0 0
7:54 pm 19:54 Cloudy with Haze 56 13.3 51 10.6 84 84 NNE 13 20 29.95 1014 5 8.0467 0 0
8:54 pm 20:54 Cloudy 56 13.3 51 10.6 84 84 NNE 12 19 29.96 1015 7 11.26538 0 0
9:54 pm 21:54 Cloudy 55 12.8 50 10 83 83 N 9 15 29.97 1015 7 11.26538 0 0
10:54 pm 22:54 Cloudy 55 12.8 50 10 83 83 N 8 13 29.98 1015 7 11.26538 0 0
11:54 pm 23:54 Cloudy with Mist and Fog 54 12.2 50 10 87 87 N 9 15 29.98 1015 6 9.65604 0 0

Powered by AerisWeather